Cairns, Australia

7:42 AM AEST on March 02, 2017 (GMT +1000)
Cairns International

Weather History for YBCS - September, 2012

Change the Weather History Date:

Monday, September 10, 2012

  Actual Average Record
Temperature  
Mean Temperature 72 °F -  
Max Temperature 81 °F 83 °F 86 °F (2000)
Min Temperature 62 °F 67 °F 53 °F (2006)
Cooling Degree Days 6    
Growing Degree Days 22 (Base 50)    
Moisture  
Dew Point 59 °F    
Average Humidity 62    
Maximum Humidity 88    
Minimum Humidity 32    
Precipitation  
Precipitation 0.00 in 0.05 in - ()
Sea Level Pressure  
Sea Level Pressure 30.04 in    
Wind  
Wind Speed 12 mph ()    
Max Wind Speed 24 mph    
Max Gust Speed -    
Visibility 7.7 miles    
Events      
Averages and records for this station are not official NWS values.
T = Trace of Precipitation, MM = Missing Value Source: Averaged Metar Reports

Daily Weather History Graph

Daily Weather History Graph

Search for Another Location

Airport or City:

Trip Planner

Search our weather history database for the weather conditions in past years. The results will help you decide how hot, cold, wet, or windy it might be!

Date:

Astronomy

Sep. 10, 2012 Rise Set
Actual Time 6:16 AM AEST 6:11 PM AEST
Civil Twilight 5:54 AM AEST 6:33 PM AEST
Nautical Twilight 5:29 AM AEST 6:58 PM AEST
Astronomical Twilight 5:04 AM AEST 7:23 PM AEST
Moon 1:24 AM AEST (9/10) 12:53 PM AEST (9/10)
Length of Visible Light 12h 38m
Length of Day
11h 55m
Waning Crescent, 35% of the Moon is Illuminated
Sep 10
Waning Crescent
Sep 16
New
Sep 23
First Quarter
Sep 30
Full
Oct 8
Last Quarter

Hourly Weather History & Observations

Time (AEST) Temp. Heat Index Dew Point Humidity Pressure Visibility Wind Dir Wind Speed Gust Speed Precip Events Conditions
12:00 AM 69 °F - 59 °F 64% 30.06 in - South 10.4 mph - -  
12:00 AM 69.8 °F - 59.0 °F 68% 30.04 in - South 10.4 mph - N/A   Clear
12:30 AM 66.2 °F - 60.8 °F 83% 30.04 in - SSE 10.4 mph - N/A   Clear
1:00 AM 64 °F - 60 °F 84% 30.04 in - SE 10.4 mph - -  
1:00 AM 64.4 °F - 60.8 °F 88% 30.04 in 6.2 mi SE 10.4 mph - N/A   Partly Cloudy
2:00 AM 64.4 °F - 60.8 °F 88% 30.01 in - ESE 10.4 mph - N/A   Clear
2:30 AM 64.4 °F - 59.0 °F 83% 30.01 in 6.2 mi SE 10.4 mph - N/A   Partly Cloudy
3:00 AM 64 °F - 60 °F 81% 30.01 in - SE 10.4 mph - -  
3:00 AM 64.4 °F - 59.0 °F 83% 30.01 in 6.2 mi SE 10.4 mph - N/A   Partly Cloudy
3:30 AM 62.6 °F - 59.0 °F 88% 30.01 in 6.2 mi SE 8.1 mph - N/A   Partly Cloudy
4:00 AM 67 °F - 58 °F 67% 30.01 in - South 11.5 mph - -  
4:00 AM 68.0 °F - 59.0 °F 73% 30.01 in 6.2 mi South 11.5 mph - N/A   Partly Cloudy
4:30 AM 68.0 °F - 57.2 °F 68% 29.98 in 6.2 mi South 11.5 mph - N/A   Partly Cloudy
5:00 AM 68.0 °F - 57.2 °F 68% 29.98 in 6.2 mi SSE 11.5 mph - N/A   Mostly Cloudy
5:30 AM 68.0 °F - 57.2 °F 68% 30.01 in 6.2 mi South 10.4 mph - N/A   Mostly Cloudy
6:00 AM 69 °F - 56 °F 53% 30.02 in 19 mi South 11.5 mph - -   Partly Cloudy
6:00 AM 69.8 °F - 55.4 °F 60% 30.01 in 6.2 mi South 11.5 mph - N/A   Mostly Cloudy
6:30 AM 69.8 °F - 55.4 °F 60% 30.01 in 6.2 mi South 10.4 mph - N/A   Mostly Cloudy
7:00 AM 70 °F - 54 °F 47% 30.05 in - South 11.5 mph - -  
7:00 AM 69.8 °F - 53.6 °F 56% 30.04 in 6.2 mi South 11.5 mph - N/A   Mostly Cloudy
7:30 AM 68.0 °F - 57.2 °F 68% 30.04 in 6.2 mi SE 10.4 mph - N/A   Mostly Cloudy
8:00 AM 68.0 °F - 59.0 °F 73% 30.06 in 6.2 mi SE 12.7 mph - N/A   Mostly Cloudy
8:30 AM 71.6 °F - 57.2 °F 60% 30.06 in 6.2 mi South 10.4 mph - N/A   Mostly Cloudy
9:00 AM 73 °F - 58 °F 49% 30.08 in 19 mi South 10.4 mph - -   Partly Cloudy
9:00 AM 73.4 °F - 57.2 °F 57% 30.06 in 6.2 mi South 10.4 mph - N/A   Mostly Cloudy
9:30 AM 75.2 °F - 59.0 °F 57% 30.06 in 6.2 mi SSE 12.7 mph - N/A   Mostly Cloudy
10:00 AM 76 °F - 59 °F 45% 30.09 in - SSE 16.1 mph - -  
10:00 AM 77.0 °F - 59.0 °F 54% 30.06 in 6.2 mi SSE 16.1 mph - N/A   Mostly Cloudy
10:30 AM 80.6 °F 80.5 °F 55.4 °F 42% 30.06 in 6.2 mi SE 20.7 mph - N/A   Mostly Cloudy
11:00 AM 77.0 °F - 55.4 °F 47% 30.06 in 6.2 mi SE 21.9 mph - N/A   Mostly Cloudy
11:30 AM 78.8 °F - 55.4 °F 44% 30.06 in 6.2 mi SE 20.7 mph - N/A   Mostly Cloudy
12:00 PM 81 °F - 56 °F 32% 30.06 in 19 mi SE 20.7 mph - -   Partly Cloudy
12:00 PM 80.6 °F 80.8 °F 57.2 °F 45% 30.06 in 6.2 mi SE 20.7 mph - N/A   Mostly Cloudy
12:30 PM 80.6 °F 80.8 °F 57.2 °F 45% 30.04 in 6.2 mi SE 23.0 mph - N/A   Mostly Cloudy
1:00 PM 80 °F - 56 °F 33% 30.04 in - SE 24.2 mph - -  
1:00 PM 80.6 °F 80.5 °F 55.4 °F 42% 30.04 in 6.2 mi SE 24.2 mph - N/A   Mostly Cloudy
1:30 PM 78.8 °F - 57.2 °F 47% 30.01 in 6.2 mi SSE 21.9 mph - N/A   Mostly Cloudy
2:00 PM 78.8 °F - 57.2 °F 47% 30.01 in 6.2 mi SE 19.6 mph - N/A   Mostly Cloudy
2:30 PM 77.0 °F - 57.2 °F 50% 30.01 in 6.2 mi SE 19.6 mph - N/A   Mostly Cloudy
3:00 PM 80 °F - 59 °F 38% 30.01 in 19 mi SE 17.3 mph - -   Partly Cloudy
3:00 PM 80.6 °F 81.1 °F 59.0 °F 48% 30.01 in 6.2 mi SE 17.3 mph - N/A   Scattered Clouds
3:30 PM 77.0 °F - 57.2 °F 50% 30.01 in 6.2 mi SE 19.6 mph - N/A   Scattered Clouds
4:00 PM 77 °F - 58 °F 42% 30.02 in - SE 16.1 mph - -  
4:00 PM 77.0 °F - 59.0 °F 54% 30.01 in 6.2 mi SE 16.1 mph - N/A   Mostly Cloudy
4:30 PM 75.2 °F - 59.0 °F 57% 30.01 in 6.2 mi SE 17.3 mph - N/A   Mostly Cloudy
5:00 PM 75.2 °F - 59.0 °F 57% 30.01 in 6.2 mi SE 16.1 mph - N/A   Mostly Cloudy
5:30 PM 75.2 °F - 59.0 °F 57% 30.04 in 6.2 mi SSE 13.8 mph - N/A   Mostly Cloudy
6:00 PM 73 °F - 60 °F 55% 30.05 in 19 mi SSE 15.0 mph - -   Partly Cloudy
6:00 PM 73.4 °F - 60.8 °F 65% 30.04 in 6.2 mi SSE 15.0 mph - N/A   Scattered Clouds
6:30 PM 71.6 °F - 60.8 °F 69% 30.06 in 6.2 mi South 12.7 mph - N/A   Scattered Clouds
7:00 PM 72 °F - 61 °F 61% 30.07 in - SSE 12.7 mph - -  
7:00 PM 71.6 °F - 60.8 °F 69% 30.06 in 6.2 mi SSE 12.7 mph - N/A   Scattered Clouds
7:30 PM 71.6 °F - 62.6 °F 73% 30.06 in 6.2 mi SSE 15.0 mph - N/A   Scattered Clouds
8:00 PM 71.6 °F - 62.6 °F 73% 30.06 in 6.2 mi South 13.8 mph - N/A   Partly Cloudy
8:30 PM 71.6 °F - 62.6 °F 73% 30.06 in 6.2 mi South 12.7 mph - N/A   Partly Cloudy
9:00 PM 71 °F - 62 °F 65% 30.08 in 16 mi South 11.5 mph - -   Partly Cloudy
9:00 PM 71.6 °F - 62.6 °F 73% 30.06 in 6.2 mi South 11.5 mph - N/A   Partly Cloudy
9:30 PM 71.6 °F - 62.6 °F 73% 30.06 in 6.2 mi South 10.4 mph - N/A   Partly Cloudy
10:00 PM 71 °F - 62 °F 67% 30.09 in - SSE 12.7 mph - -  
10:00 PM 71.6 °F - 62.6 °F 73% 30.06 in 6.2 mi SSE 12.7 mph - N/A   Scattered Clouds
10:30 PM 71.6 °F - 62.6 °F 73% 30.06 in 6.2 mi South 11.5 mph - N/A   Scattered Clouds
11:00 PM 71.6 °F - 62.6 °F 73% 30.06 in 6.2 mi South 11.5 mph - N/A   Mostly Cloudy
11:30 PM 71.6 °F - 62.6 °F 73% 30.06 in 6.2 mi South 15.0 mph - N/A   Mostly Cloudy